Regional Weather Roundup
Issued by NWS

Home | Current Version | Previous Version | Graphics & Text | Print | Product List | Glossary On
Versions: 1 2 3 4 5 6 7 8 9 10 11 12 13 14 15 16 17 18 19 20 21 22 23 24 25 26 27 28
000
ASUS45 KTFX 042310
RWRMT
MONTANA REGIONAL WEATHER ROUNDUP
NATIONAL WEATHER SERVICE GREAT FALLS MT
500 PM MDT WED MAY 04 2016

NOTE: "FAIR" INDICATES FEW OR NO CLOUDS BELOW 12000 FEET WITH NO
SIGNIFICANT WEATHER AND/OR OBSTRUCTIONS TO VISIBILITY.

MTZ001>007-043-050000-
WEST OF THE DIVIDE

CITY           SKY/WX    TMP DP  RH WIND       PRES   REMARKS
KALISPELL      MOSUNNY   77  43  29 S9        29.89F
MISSOULA       PTSUNNY   78  38  23 W6        29.92F
BUTTE          MOSUNNY   70  23  17 SW8G17    30.02F
MULLAN PASS    PTSUNNY   64  35  34 VRB5      30.04F
ANACONDA         N/A     73  21  14 SW7       29.99F
DEER LODGE       N/A     75  27  16 S5        29.98S
EUREKA           N/A     79  36  21 SW9G17    29.86F
HAMILTON         N/A     82  30  15 CALM      29.91F
LIBBY            N/A     81  39  22 SW3       29.87F
PLAINS           N/A     78  45  31 CALM      29.89F
$$

MTZ008-052>055-050000-
SOUTHWEST MONTANA

CITY           SKY/WX    TMP DP  RH WIND       PRES   REMARKS
BOZEMAN        SUNNY     79  26  14 SW18G25   29.97F
DILLON         CLOUDY    75  28  17 SW17G23   30.00F
ENNIS          MOSUNNY   72  25  17 S16G24    30.08F
TWIN BRIDGES     N/A     74  26  16 S15       29.99F
$$

MTZ009-010-012-014-046-048-049-054-050000-
EAST SLOPES AND CENTRAL MONTANA

CITY           SKY/WX    TMP DP  RH WIND       PRES   REMARKS
CUT BANK         N/A     76  34  21 W17G25    29.89F
GREAT FALLS    SUNNY     80  31  16 SW13      29.89F
MALMSTROM AFB  SUNNY     78  29  16 W9        29.89F
HELENA         MOSUNNY   81  27  14 S8G21     29.90S
CHOTEAU          N/A     79  32  18 SW13G24   29.90S
CONRAD           N/A     80  41  25 N6        29.91F
$$

MTZ011-013-016-021-045-047-050-051-050000-
NORTH CENTRAL MONTANA

CITY           SKY/WX    TMP DP  RH WIND       PRES   REMARKS
HAVRE          SUNNY     82  42  24 SW13      29.83F
LEWISTOWN      CLOUDY    80  28  15 S16       29.94F
N BAR RANCH      N/A     77  27  15 W9G16     29.97F
$$

MTZ017>020-022>027-061-062-050000-
NORTHEAST MONTANA

CITY           SKY/WX    TMP DP  RH WIND       PRES   REMARKS
GLASGOW        SUNNY     85  38  18 SW7       29.85F
JORDAN           N/A     83  40  21 VRB5      29.87F
SIDNEY         SUNNY     82  37  20 SW15      29.89F
WOLF POINT     SUNNY     86  42  21 SW13      29.86F
POPLAR           N/A     86  37  17 W8        29.87F
SCOBEY           N/A     84  39  20 S10       29.88F
$$

MTZ028>42-056>058-050000-
SOUTHCENTRAL AND SOUTHEAST MONTANA

CITY           SKY/WX    TMP DP  RH WIND       PRES   REMARKS
BAKER          SUNNY     80  37  21 S14G20    29.98F
BILLINGS       CLOUDY    83  27  13 W12       29.94F
LIVINGSTON     SUNNY     79  26  14 W22G28    29.96F
MILES CITY     SUNNY     84  31  14 SW8       29.90F
EKALAKA          N/A     77  37  23 S10       29.98F
FORSYTH          N/A     84  34  16 S8        29.91F
LAUREL           N/A     81  38  21 S1        29.94F
ROUNDUP          N/A     83  32  16 SW6       29.84F
$$

REGIONAL REPORTS...DAKOTAS

CITY           SKY/WX    TMP DP  RH WIND       PRES   REMARKS
WILLISTON      SUNNY     84  36  18 SW14      29.89F
MINOT          SUNNY     88  36  15 SW12      29.89F
DICKINSON      SUNNY     79  35  20 SW13      29.95F
BEACH            N/A     81  32  17 S16       29.98F
CROSBY           N/A     84  34  16 SW15G25   29.90F
TIOGA            N/A     82  34  17 SW17G28   29.96F
WATFORD CITY     N/A     82  36  18 SW13G21   29.92F
BISMARCK       SUNNY     80  43  26 MISG      29.97F
GRAND FORKS    MOSUNNY   71  30  21 S3        29.96F
FARGO          SUNNY     70  26  19 N7        29.98S
BUFFALO SD       N/A     78  38  23 S14G24    29.95F
RAPID CITY     SUNNY     75  42  30 S14       30.04F
$$

REGIONAL REPORTS...WYOMING/IDAHO/WASHINGTON

CITY           SKY/WX    TMP DP  RH WIND       PRES   REMARKS
GILLETTE       SUNNY     78  31  17 CALM      30.02F
SHERIDAN       SUNNY     79  35  20 E7        29.98F
BUFFALO WY     SUNNY     77  35  21 NE6       30.04F
CODY           CLOUDY    77  27  15 SW3G22    30.00F
YELLOWSTONE LA   N/A     57  23  26 CALM      30.23S
IDAHO FALLS    CLOUDY    76  33  21 SW13      30.03F
SALMON         CLOUDY    77  34  20 SW13      29.91F
BOISE          CLOUDY    82  33  17 SE7       29.84F
SPOKANE        CLOUDY    75  43  31 W9        29.90F
$$

REGIONAL REPORTS...ALBERTA

CITY           SKY/WX    TMP DP  RH WIND       PRES   REMARKS
EDMONTON       MOSUNNY   81  36  19 W3        29.70F
CALGARY        CLOUDY    77  30  18 W9G17     29.80F
LETHBRIDGE     PTSUNNY   81  30  16 W10G24    29.82F
MEDICINE HAT   PTSUNNY   86  36  16 S14G25    29.77F
CARDSTON         N/A     77  34  20 SW9         N/A
MILK RIVER       N/A     79  37  22 W17G23      N/A
ONEFOUR          N/A     81  34  18 S10         N/A
$$

REGIONAL REPORTS...SASKATCHEWAN

CITY           SKY/WX    TMP DP  RH WIND       PRES   REMARKS
SWIFT CURRENT  SUNNY     84  30  14 W6        29.82F
REGINA         MOSUNNY   86  34  15 W13G26    29.78F
SASKATOON      SUNNY     88  28  11 W16G30    29.72S
CYPRESS HILLS    N/A     77  32  19 SW9         N/A
VAL MARIE        N/A     84  30  14 SW6         N/A
ROCKGLEN         N/A     81  34  18 W9G18       N/A
ASSINIBOIA       N/A     84  27  12 SW8         N/A
$$




USA.gov is the U.S. government's official web portal to all federal, state and local government web resources and services.